EW8848 Plant City FL US current weather conditions

sailwx.info

Wind from 049

Air temperature 8.3° C
Dewpoint 6.3° C

Last reported at 2018-Dec-12 03:02 UTC.
Time now 2018-Dec-12 03:51 UTC

Location: N 28°01' W 082°06'.
View on Google Maps.

See reports from other nearby stations

  
Tides and Currents Weather Stations Pressure Air Temp Water Temp Dewpoint Dewpoint Depression Visibility Wind Speed Wind Dir Waves Ship Positions
date/time (UTC)wind fromknots sea level pressurealtimeterstation pressurevisibilityair tempwater tempwave heightnotes
2018-Dec-12 03:17 049 8.3
2018-Dec-12 03:02 049 8.3
2018-Dec-12 02:47 049 8.3
2018-Dec-12 02:32 049 8.3
2018-Dec-12 02:17 049 8.3
2018-Dec-12 02:02 049 8.9
2018-Dec-12 01:47 049 8.9
2018-Dec-12 01:32 049 8.9
2018-Dec-12 01:17 049 9.4
2018-Dec-12 01:02 049 9.4
2018-Dec-12 00:47 049 9.4
2018-Dec-12 00:32 049 10.0
2018-Dec-12 00:17 049 10.6
2018-Dec-12 00:02 049 10.6
2018-Dec-11 23:47 049 11.1
2018-Dec-11 23:32 049 11.7
2018-Dec-11 23:17 049 12.2
2018-Dec-11 23:02 049 12.2
2018-Dec-11 22:47 049 12.8
2018-Dec-11 22:32 049 12.8
2018-Dec-11 22:17 049 12.8
2018-Dec-11 22:02 047 13.3
2018-Dec-11 21:47 054 13.3
2018-Dec-11 21:32 057 13.3
2018-Dec-11 21:17 042 13.3
2018-Dec-11 21:02 054 13.9
2018-Dec-11 20:47 005 13.9
2018-Dec-11 20:32 058 13.9
2018-Dec-11 20:17 041 13.9
2018-Dec-11 20:02 051 13.9
2018-Dec-11 19:47 044 13.9
2018-Dec-11 19:32 039 13.3
2018-Dec-11 19:17 026 13.3
2018-Dec-11 19:02 056 13.3
2018-Dec-11 18:47 073 12.8
2018-Dec-11 18:32 334 12.8
2018-Dec-11 18:16 031 13.3
2018-Dec-11 18:01 041 12.2
2018-Dec-11 17:46 062 12.2
2018-Dec-11 17:31 023 11.7
2018-Dec-11 17:16 11.1
2018-Dec-11 17:01 038 11.1
2018-Dec-11 16:46 347 11.1
2018-Dec-11 16:31 340 10.6
2018-Dec-11 16:16 355 0 gusting 7 10.6
2018-Dec-11 16:01 047 0 gusting 7 10.0
2018-Dec-11 15:46 077 1 gusting 9 9.4
2018-Dec-11 15:31 344 2 gusting 10 10.0
2018-Dec-11 15:16 046 1 gusting 10 9.4
2018-Dec-11 15:15 050 0 gusting 8 9.4
2018-Dec-11 15:01 042 2 gusting 7 9.4
2018-Dec-11 14:46 054 1 gusting 6 9.4
2018-Dec-11 14:31 026 2 gusting 7 8.3
2018-Dec-11 14:16 049 0 gusting 5 8.3
2018-Dec-11 14:01 046 1 gusting 7 7.8
2018-Dec-11 13:46 7.8
2018-Dec-11 13:31 005 7.2
2018-Dec-11 13:16 044 6.7
2018-Dec-11 13:01 052 6.7
2018-Dec-11 12:46 034 6.7
2018-Dec-11 12:31 355 6.7
2018-Dec-11 12:16 341 6.1
2018-Dec-11 12:01 020 6.1
2018-Dec-11 11:46 020 6.1
2018-Dec-11 11:31 035 6.1
2018-Dec-11 11:16 035 6.1
2018-Dec-11 11:01 035 6.1
2018-Dec-11 10:46 035 5.6
2018-Dec-11 10:31 035 6.1
2018-Dec-11 10:16 035 6.1
2018-Dec-11 10:01 035 6.1
2018-Dec-11 09:46 035 6.1
2018-Dec-11 09:31 035 6.1
2018-Dec-11 09:16 035 6.1
2018-Dec-11 09:01 035 6.1
2018-Dec-11 08:46 035 6.1
2018-Dec-11 08:31 035 6.1
2018-Dec-11 08:16 035 6.7
2018-Dec-11 08:01 035 6.7
2018-Dec-11 07:46 035 6.7
2018-Dec-11 07:31 035 6.7
2018-Dec-11 07:16 035 6.7
2018-Dec-11 07:01 035 6.7
2018-Dec-11 06:46 035 7.2
2018-Dec-11 06:31 035 7.2
2018-Dec-11 06:16 035 7.2
2018-Dec-11 06:00 035 7.2
2018-Dec-11 05:45 035 7.8
2018-Dec-11 05:30 035 7.8
2018-Dec-11 05:15 035 7.8
2018-Dec-11 05:00 035 7.8
2018-Dec-11 04:45 035 7.8
2018-Dec-11 04:30 035 7.8
2018-Dec-11 04:15 035 8.3
2018-Dec-11 04:00 035 8.3
2018-Dec-11 03:45 005 8.3
2018-Dec-11 03:31 005 8.3
2018-Dec-11 03:15 005 8.9
2018-Dec-11 03:00 005 8.9
2018-Dec-11 02:45 005 9.4
2018-Dec-11 02:30 005 9.4
2018-Dec-11 02:15 005 9.4
2018-Dec-11 02:00 005 10.0
2018-Dec-11 01:45 005 10.0
2018-Dec-11 01:30 005 10.0
2018-Dec-11 01:15 005 10.6
2018-Dec-11 00:59 005 10.6
2018-Dec-11 00:46 005 10.6
2018-Dec-11 00:44 005 10.6
2018-Dec-11 00:29 005 10.6
2018-Dec-11 00:15 048 11.1
2018-Dec-10 23:59 048 11.1
2018-Dec-10 23:44 033 11.7
2018-Dec-10 23:29 023 11.7
2018-Dec-10 23:14 024 12.2
2018-Dec-10 22:59 346 12.2
2018-Dec-10 22:44 336 12.2
2018-Dec-10 22:31 348 12.2
2018-Dec-10 22:29 348 12.8
2018-Dec-10 22:14 332 12.8
2018-Dec-10 21:59 331 13.3
2018-Dec-10 21:44 315 13.3
2018-Dec-10 21:29 317 13.3
2018-Dec-10 21:14 335 13.9
2018-Dec-10 20:59 340 13.9
2018-Dec-10 20:44 333 14.4
2018-Dec-10 20:29 329 15.0
2018-Dec-10 20:16 319 14.4
2018-Dec-10 20:14 292 14.4
2018-Dec-10 19:59 347 14.4
2018-Dec-10 19:44 340 14.4
2018-Dec-10 19:29 336 14.4
2018-Dec-10 19:14 343 14.4
2018-Dec-10 18:59 304 14.4
2018-Dec-10 18:44 355 14.4
2018-Dec-10 18:29 336 13.9
2018-Dec-10 18:14 333 0 gusting 4 13.9
2018-Dec-10 18:02 010 1 gusting 3 13.3
2018-Dec-10 17:59 348 1 gusting 3 13.9
2018-Dec-10 17:44 349 1 gusting 3 13.9
2018-Dec-10 17:29 337 1 gusting 3 13.9
2018-Dec-10 17:14 345 0 gusting 2 13.9
2018-Dec-10 16:59 350 0 gusting 2 13.9
2018-Dec-10 16:43 355 0 gusting 3 13.9
2018-Dec-10 16:28 338 0 gusting 2 13.9
2018-Dec-10 16:13 351 0 gusting 4 13.3
2018-Dec-10 15:58 346 0 gusting 2 13.3
2018-Dec-10 15:43 355 0 gusting 3 13.3
2018-Dec-10 15:28 313 0 gusting 2 12.8
2018-Dec-10 15:13 349 12.8
2018-Dec-10 14:58 316 0 gusting 2 12.8
2018-Dec-10 14:43 055 0 gusting 4 12.8
2018-Dec-10 14:28 026 0 gusting 2 12.2
2018-Dec-10 14:13 055 12.2
2018-Dec-10 13:58 040 12.2
2018-Dec-10 13:43 036 0 gusting 2 12.2
2018-Dec-10 13:28 053 12.2
2018-Dec-10 13:14 350 0 gusting 2 12.2
2018-Dec-10 13:01 005 12.2
2018-Dec-10 12:58 005 12.2
2018-Dec-10 12:43 005 12.2
2018-Dec-10 12:28 005 12.2
2018-Dec-10 12:13 013 12.8
2018-Dec-10 11:58 027 12.8
2018-Dec-10 11:43 036 12.8
2018-Dec-10 11:28 350 12.8
2018-Dec-10 11:13 349 12.8
2018-Dec-10 10:58 345 12.8
2018-Dec-10 10:43 345 12.8
2018-Dec-10 10:28 333 13.3
2018-Dec-10 10:15 336 12.8
2018-Dec-10 10:13 336 13.3
2018-Dec-10 09:43 328 13.3
2018-Dec-10 09:28 328 13.9
2018-Dec-10 09:13 331 0 gusting 2 13.9
2018-Dec-10 08:58 345 0 gusting 2 13.9
2018-Dec-10 08:43 014 0 gusting 3 14.4
2018-Dec-10 08:28 345 0 gusting 3 14.4
2018-Dec-10 08:13 325 0 gusting 3 15.0
2018-Dec-10 08:01 328 15.0
2018-Dec-10 07:58 324 15.6
2018-Dec-10 07:43 327 15.6
2018-Dec-10 07:28 339 16.1
2018-Dec-10 07:13 328 16.1
2018-Dec-10 06:58 321 16.1
2018-Dec-10 06:43 342 16.7
2018-Dec-10 06:28 336 16.7
2018-Dec-10 06:13 336 17.2
2018-Dec-10 05:58 309 17.2
2018-Dec-10 05:47 319 17.2
2018-Dec-10 05:43 317 17.2
2018-Dec-10 05:27 315 17.2
2018-Dec-10 05:12 315 17.8
2018-Dec-10 04:57 315 17.8
2018-Dec-10 04:42 302 17.8
2018-Dec-10 04:27 299 17.8
2018-Dec-10 04:12 315 17.8
2018-Dec-10 03:57 284 17.8
2018-Dec-10 03:42 263 17.8
2018-Dec-10 03:27 303 17.8
2018-Dec-10 03:12 303 17.8
2018-Dec-10 03:00 303 17.8